Climatologie pour Saint-Brevin les Pins
Jour • Résumé pour avril 19, 2017 Système :  Métrique    Anglais   Mixte
« - 1 jour
+ 1 jour »
Jour Semaine Mois Année Personnalisé
  Maximum : Minimum : Moyenne :
Température sous abri : 16.1 °C 3.5 °C 9.6 °C
Point de rosée : 6.6 °C -0.1 °C 2.3 °C
Humidité : 86 % 37 % 63 %
Vitesse du vent : 22.5 km/h 0.0 km/h 7.9 km/h
Rafale : 35.4 km/h - -
Direction :- - ENE
Pression : 1032.7 hPa 1030.0 hPa -
Précipitations : 0.0 mm    
Historical Graphs
 
 
Tableau de données pour avril 19, 2017
Heure Tempé Pt rosée Pression Vent Vitesse Rafale Humidité Taux pluie (/hr) Soleil
00:00 8.2 °C 1.4 °C 1030.0 hPa NNE 11.3 km/h 22.5 km/h 62 % 0.0 mm 0 W/m2
00:10 7.9 °C 1.3 °C 1030.0 hPa NNE 4.8 km/h 19.3 km/h 63 % 0.0 mm 0 W/m2
00:15 7.7 °C 1.3 °C 1030.0 hPa NNE 9.7 km/h 16.1 km/h 64 % 0.0 mm 0 W/m2
00:20 7.7 °C 1.5 °C 1030.0 hPa ENE 4.8 km/h 16.1 km/h 65 % 0.0 mm 0 W/m2
00:25 7.5 °C 1.6 °C 1030.0 hPa NE 14.5 km/h 14.5 km/h 66 % 0.0 mm 0 W/m2
00:30 7.4 °C 1.5 °C 1030.0 hPa East 6.4 km/h 14.5 km/h 66 % 0.0 mm 0 W/m2
00:35 7.2 °C 1.7 °C 1030.0 hPa NE 12.9 km/h 14.5 km/h 68 % 0.0 mm 0 W/m2
00:40 7.2 °C 1.7 °C 1030.0 hPa North 4.8 km/h 16.1 km/h 68 % 0.0 mm 0 W/m2
00:45 7.2 °C 1.7 °C 1030.4 hPa ENE 4.8 km/h 17.7 km/h 68 % 0.0 mm 0 W/m2
00:50 7.2 °C 1.9 °C 1030.4 hPa NE 8.0 km/h 19.3 km/h 69 % 0.0 mm 0 W/m2
00:55 7.1 °C 2.0 °C 1030.0 hPa NE 9.7 km/h 19.3 km/h 70 % 0.0 mm 0 W/m2
01:00 7.1 °C 2.0 °C 1030.4 hPa NNE 4.8 km/h 17.7 km/h 70 % 0.0 mm 0 W/m2
01:05 6.8 °C 1.9 °C 1030.4 hPa NE 11.3 km/h 14.5 km/h 71 % 0.0 mm 0 W/m2
01:10 6.7 °C 2.0 °C 1030.4 hPa Calm   16.1 km/h 72 % 0.0 mm 0 W/m2
01:15 6.6 °C 2.1 °C 1030.4 hPa NNE 1.6 km/h 16.1 km/h 73 % 0.0 mm 0 W/m2
01:20 6.6 °C 2.2 °C 1030.4 hPa NE 3.2 km/h 12.9 km/h 74 % 0.0 mm 0 W/m2
01:25 6.6 °C 2.4 °C 1030.7 hPa NE 3.2 km/h 14.5 km/h 75 % 0.0 mm 0 W/m2
01:30 6.4 °C 2.3 °C 1030.7 hPa ESE 6.4 km/h 14.5 km/h 75 % 0.0 mm 0 W/m2
01:35 6.3 °C 2.4 °C 1030.7 hPa ENE 8.0 km/h 16.1 km/h 76 % 0.0 mm 0 W/m2
01:40 6.5 °C 2.6 °C 1030.7 hPa ENE 8.0 km/h 20.9 km/h 76 % 0.0 mm 0 W/m2
01:45 6.6 °C 2.6 °C 1030.7 hPa ESE 8.0 km/h 20.9 km/h 76 % 0.0 mm 0 W/m2
01:50 6.7 °C 2.5 °C 1030.7 hPa East 8.0 km/h 19.3 km/h 75 % 0.0 mm 0 W/m2
01:55 6.6 °C 2.5 °C 1030.7 hPa ENE 12.9 km/h 17.7 km/h 75 % 0.0 mm 0 W/m2
02:00 6.6 °C 2.6 °C 1030.7 hPa East 6.4 km/h 16.1 km/h 76 % 0.0 mm 0 W/m2
02:05 6.4 °C 2.5 °C 1030.7 hPa East 1.6 km/h 16.1 km/h 76 % 0.0 mm 0 W/m2
02:10 6.3 °C 2.5 °C 1030.7 hPa NE 8.0 km/h 14.5 km/h 77 % 0.0 mm 0 W/m2
02:15 6.1 °C 2.4 °C 1030.7 hPa East 1.6 km/h 14.5 km/h 77 % 0.0 mm 0 W/m2
02:20 5.9 °C 2.4 °C 1030.7 hPa ENE 6.4 km/h 14.5 km/h 78 % 0.0 mm 0 W/m2
02:25 5.8 °C 2.5 °C 1030.7 hPa East 1.6 km/h 14.5 km/h 79 % 0.0 mm 0 W/m2
02:30 5.8 °C 2.6 °C 1030.7 hPa ENE 3.2 km/h 16.1 km/h 80 % 0.0 mm 0 W/m2
02:35 5.8 °C 2.6 °C 1030.7 hPa East 6.4 km/h 16.1 km/h 80 % 0.0 mm 0 W/m2
02:40 5.7 °C 2.5 °C 1030.7 hPa NE 4.8 km/h 12.9 km/h 80 % 0.0 mm 0 W/m2
02:45 5.5 °C 2.5 °C 1031.0 hPa NE 3.2 km/h 12.9 km/h 81 % 0.0 mm 0 W/m2
02:50 5.4 °C 2.6 °C 1031.0 hPa ENE 4.8 km/h 12.9 km/h 82 % 0.0 mm 0 W/m2
02:55 5.5 °C 2.7 °C 1030.7 hPa ENE 4.8 km/h 12.9 km/h 82 % 0.0 mm 0 W/m2
03:00 5.4 °C 2.6 °C 1030.7 hPa NE 9.7 km/h 12.9 km/h 82 % 0.0 mm 0 W/m2
03:10 5.2 °C 2.6 °C 1030.7 hPa East 8.0 km/h 12.9 km/h 83 % 0.0 mm 0 W/m2
03:15 5.2 °C 2.6 °C 1030.7 hPa East 4.8 km/h 11.3 km/h 83 % 0.0 mm 0 W/m2
03:20 5.1 °C 2.5 °C 1030.7 hPa Calm   11.3 km/h 83 % 0.0 mm 0 W/m2
03:25 5.1 °C 2.4 °C 1030.7 hPa ENE 3.2 km/h 14.5 km/h 83 % 0.0 mm 0 W/m2
03:30 5.1 °C 2.4 °C 1031.0 hPa ENE 3.2 km/h 14.5 km/h 83 % 0.0 mm 0 W/m2
03:35 4.9 °C 2.3 °C 1030.7 hPa East 4.8 km/h 11.3 km/h 83 % 0.0 mm 0 W/m2
03:40 4.9 °C 2.3 °C 1030.7 hPa NE 3.2 km/h 11.3 km/h 83 % 0.0 mm 0 W/m2
03:45 4.9 °C 2.3 °C 1030.7 hPa East 4.8 km/h 11.3 km/h 83 % 0.0 mm 0 W/m2
03:50 4.9 °C 2.2 °C 1030.7 hPa East 3.2 km/h 9.7 km/h 83 % 0.0 mm 0 W/m2
03:55 4.7 °C 2.1 °C 1030.7 hPa Calm   9.7 km/h 83 % 0.0 mm 0 W/m2
04:00 4.7 °C 2.1 °C 1030.7 hPa ENE 1.6 km/h 11.3 km/h 83 % 0.0 mm 0 W/m2
04:05 4.6 °C 2.0 °C 1030.7 hPa ENE 8.0 km/h 11.3 km/h 83 % 0.0 mm 0 W/m2
04:10 4.5 °C 2.0 °C 1031.0 hPa ENE 6.4 km/h 11.3 km/h 84 % 0.0 mm 0 W/m2
04:15 4.5 °C 2.0 °C 1031.0 hPa NE 4.8 km/h 9.7 km/h 84 % 0.0 mm 0 W/m2
04:20 4.5 °C 2.0 °C 1031.0 hPa ENE 4.8 km/h 9.7 km/h 84 % 0.0 mm 0 W/m2
04:25 4.4 °C 2.0 °C 1031.0 hPa ENE 4.8 km/h 9.7 km/h 84 % 0.0 mm 0 W/m2
04:30 4.3 °C 1.9 °C 1031.0 hPa East 1.6 km/h 11.3 km/h 84 % 0.0 mm 0 W/m2
04:35 4.4 °C 2.0 °C 1031.0 hPa ENE 3.2 km/h 11.3 km/h 84 % 0.0 mm 0 W/m2
04:40 4.4 °C 2.0 °C 1031.0 hPa East 3.2 km/h 12.9 km/h 84 % 0.0 mm 0 W/m2
04:45 4.6 °C 1.9 °C 1031.0 hPa ENE 3.2 km/h 12.9 km/h 83 % 0.0 mm 0 W/m2
04:50 4.4 °C 1.8 °C 1031.0 hPa Calm   8.0 km/h 83 % 0.0 mm 0 W/m2
04:55 4.4 °C 1.8 °C 1031.0 hPa East 3.2 km/h 9.7 km/h 83 % 0.0 mm 0 W/m2
05:00 4.4 °C 1.8 °C 1031.0 hPa ENE 4.8 km/h 11.3 km/h 83 % 0.0 mm 0 W/m2
05:05 4.2 °C 1.7 °C 1031.4 hPa ENE 1.6 km/h 11.3 km/h 84 % 0.0 mm 0 W/m2
05:15 4.2 °C 1.8 °C 1031.4 hPa ENE 4.8 km/h 9.7 km/h 84 % 0.0 mm 0 W/m2
05:20 4.1 °C 1.6 °C 1031.4 hPa ENE 3.2 km/h 8.0 km/h 84 % 0.0 mm 0 W/m2
05:25 4.1 °C 1.6 °C 1031.4 hPa East 3.2 km/h 6.4 km/h 84 % 0.0 mm 0 W/m2
05:30 3.9 °C 1.5 °C 1031.4 hPa ENE 1.6 km/h 8.0 km/h 84 % 0.0 mm 0 W/m2
05:35 3.8 °C 1.5 °C 1031.4 hPa East 3.2 km/h 11.3 km/h 85 % 0.0 mm 0 W/m2
05:40 3.8 °C 1.5 °C 1031.4 hPa ENE 3.2 km/h 11.3 km/h 85 % 0.0 mm 0 W/m2
05:45 3.8 °C 1.5 °C 1031.4 hPa ENE 8.0 km/h 9.7 km/h 85 % 0.0 mm 0 W/m2
05:50 3.8 °C 1.5 °C 1031.4 hPa ENE 4.8 km/h 12.9 km/h 85 % 0.0 mm 0 W/m2
05:55 3.8 °C 1.7 °C 1031.4 hPa East 8.0 km/h 12.9 km/h 86 % 0.0 mm 0 W/m2
06:00 3.9 °C 1.7 °C 1031.4 hPa ENE 6.4 km/h 12.9 km/h 85 % 0.0 mm 0 W/m2
06:05 3.9 °C 1.6 °C 1031.4 hPa ENE 1.6 km/h 11.3 km/h 85 % 0.0 mm 0 W/m2
06:10 3.8 °C 1.5 °C 1031.4 hPa East 1.6 km/h 11.3 km/h 85 % 0.0 mm 0 W/m2
06:15 3.9 °C 1.7 °C 1031.4 hPa ENE 3.2 km/h 12.9 km/h 85 % 0.0 mm 0 W/m2
06:20 3.9 °C 1.7 °C 1031.4 hPa ENE 4.8 km/h 12.9 km/h 85 % 0.0 mm 0 W/m2
06:25 4.0 °C 1.5 °C 1031.4 hPa East 3.2 km/h 14.5 km/h 84 % 0.0 mm 0 W/m2
06:30 4.0 °C 1.5 °C 1031.4 hPa ENE 6.4 km/h 14.5 km/h 84 % 0.0 mm 0 W/m2
06:35 3.9 °C 1.5 °C 1031.4 hPa ENE 8.0 km/h 14.5 km/h 84 % 0.0 mm 0 W/m2
06:40 4.1 °C 1.4 °C 1031.4 hPa ENE 9.7 km/h 12.9 km/h 83 % 0.0 mm 0 W/m2
06:45 4.1 °C 1.4 °C 1031.4 hPa ENE 4.8 km/h 14.5 km/h 83 % 0.0 mm 0 W/m2
06:50 4.1 °C 1.4 °C 1031.4 hPa Calm   14.5 km/h 83 % 0.0 mm 0 W/m2
06:55 4.1 °C 1.4 °C 1031.4 hPa NE 1.6 km/h 12.9 km/h 83 % 0.0 mm 0 W/m2
07:00 4.0 °C 1.4 °C 1031.7 hPa ENE 3.2 km/h 11.3 km/h 83 % 0.0 mm 0 W/m2
07:05 3.8 °C 1.2 °C 1031.7 hPa East 4.8 km/h 12.9 km/h 83 % 0.0 mm 0 W/m2
07:10 3.8 °C 1.4 °C 1031.7 hPa ENE 1.6 km/h 12.9 km/h 84 % 0.0 mm 0 W/m2
07:15 3.8 °C 1.4 °C 1031.7 hPa ENE 6.4 km/h 14.5 km/h 84 % 0.0 mm 5 W/m2
07:20 3.8 °C 1.4 °C 1031.7 hPa East 6.4 km/h 14.5 km/h 84 % 0.0 mm 7 W/m2
07:25 3.7 °C 1.3 °C 1031.7 hPa ENE 3.2 km/h 12.9 km/h 84 % 0.0 mm 9 W/m2
07:30 3.5 °C 1.2 °C 1031.7 hPa East 1.6 km/h 11.3 km/h 85 % 0.0 mm 12 W/m2
07:35 3.6 °C 1.4 °C 1031.7 hPa ENE 3.2 km/h 11.3 km/h 86 % 0.0 mm 14 W/m2
07:40 3.6 °C 1.5 °C 1031.7 hPa ENE 6.4 km/h 11.3 km/h 86 % 0.0 mm 18 W/m2
07:45 3.6 °C 1.5 °C 1032.1 hPa ENE 6.4 km/h 11.3 km/h 86 % 0.0 mm 19 W/m2
07:50 3.7 °C 1.6 °C 1032.1 hPa NE 1.6 km/h 9.7 km/h 86 % 0.0 mm 23 W/m2
07:55 3.8 °C 1.7 °C 1032.1 hPa NE 9.7 km/h 12.9 km/h 86 % 0.0 mm 25 W/m2
08:00 4.1 °C 1.8 °C 1032.1 hPa East 1.6 km/h 16.1 km/h 85 % 0.0 mm 26 W/m2
08:05 4.2 °C 1.9 °C 1032.1 hPa NE 4.8 km/h 16.1 km/h 85 % 0.0 mm 28 W/m2
08:10 4.3 °C 2.0 °C 1032.1 hPa ENE 8.0 km/h 16.1 km/h 85 % 0.0 mm 32 W/m2
08:15 4.5 °C 2.0 °C 1032.1 hPa NE 11.3 km/h 16.1 km/h 84 % 0.0 mm 33 W/m2
08:20 4.7 °C 2.2 °C 1032.1 hPa ENE 3.2 km/h 16.1 km/h 84 % 0.0 mm 35 W/m2
08:25 4.9 °C 2.2 °C 1032.1 hPa East 1.6 km/h 16.1 km/h 83 % 0.0 mm 137 W/m2
08:30 5.1 °C 2.5 °C 1032.1 hPa ENE 14.5 km/h 16.1 km/h 83 % 0.0 mm 151 W/m2
08:35 5.3 °C 2.5 °C 1032.1 hPa NE 8.0 km/h 17.7 km/h 82 % 0.0 mm 171 W/m2
08:40 5.5 °C 2.5 °C 1032.1 hPa NE 11.3 km/h 20.9 km/h 81 % 0.0 mm 190 W/m2
08:45 5.7 °C 2.7 °C 1032.1 hPa ENE 6.4 km/h 20.9 km/h 81 % 0.0 mm 209 W/m2
08:50 5.8 °C 2.8 °C 1032.4 hPa ENE 8.0 km/h 16.1 km/h 81 % 0.0 mm 227 W/m2
08:55 5.9 °C 2.9 °C 1032.1 hPa ENE 4.8 km/h 14.5 km/h 81 % 0.0 mm 241 W/m2
09:00 6.1 °C 2.9 °C 1032.1 hPa NE 12.9 km/h 17.7 km/h 80 % 0.0 mm 257 W/m2
09:05 6.3 °C 3.1 °C 1032.4 hPa East 9.7 km/h 17.7 km/h 80 % 0.0 mm 269 W/m2
09:10 6.6 °C 3.2 °C 1032.4 hPa ENE 6.4 km/h 16.1 km/h 79 % 0.0 mm 288 W/m2
09:15 6.8 °C 3.3 °C 1032.4 hPa East 8.0 km/h 16.1 km/h 78 % 0.0 mm 304 W/m2
09:20 7.1 °C 3.5 °C 1032.4 hPa NE 1.6 km/h 16.1 km/h 78 % 0.0 mm 313 W/m2
09:25 7.3 °C 3.6 °C 1032.4 hPa ENE 3.2 km/h 17.7 km/h 77 % 0.0 mm 325 W/m2
09:30 7.6 °C 3.6 °C 1032.4 hPa ENE 8.0 km/h 20.9 km/h 76 % 0.0 mm 352 W/m2
09:35 7.6 °C 3.6 °C 1032.4 hPa ENE 8.0 km/h 20.9 km/h 76 % 0.0 mm 366 W/m2
09:40 7.7 °C 3.5 °C 1032.1 hPa East 8.0 km/h 20.9 km/h 75 % 0.0 mm 376 W/m2
09:45 8.0 °C 3.8 °C 1032.4 hPa East 12.9 km/h 20.9 km/h 75 % 0.0 mm 392 W/m2
09:50 8.2 °C 4.2 °C 1032.4 hPa ENE 3.2 km/h 17.7 km/h 76 % 0.0 mm 404 W/m2
09:55 8.5 °C 4.1 °C 1032.4 hPa East 12.9 km/h 16.1 km/h 74 % 0.0 mm 422 W/m2
10:00 8.7 °C 4.3 °C 1032.4 hPa East 8.0 km/h 16.1 km/h 74 % 0.0 mm 436 W/m2
10:05 8.8 °C 4.3 °C 1032.4 hPa NE 6.4 km/h 16.1 km/h 73 % 0.0 mm 450 W/m2
10:10 9.2 °C 4.8 °C 1032.4 hPa East 4.8 km/h 16.1 km/h 74 % 0.0 mm 468 W/m2
10:15 9.4 °C 4.8 °C 1032.4 hPa ENE 8.0 km/h 14.5 km/h 73 % 0.0 mm 478 W/m2
10:20 9.4 °C 4.4 °C 1032.4 hPa East 11.3 km/h 16.1 km/h 71 % 0.0 mm 492 W/m2
10:25 9.4 °C 4.6 °C 1032.4 hPa NE 4.8 km/h 17.7 km/h 72 % 0.0 mm 508 W/m2
10:30 9.5 °C 4.5 °C 1032.4 hPa East 4.8 km/h 17.7 km/h 71 % 0.0 mm 524 W/m2
10:35 9.8 °C 4.8 °C 1032.4 hPa ENE 8.0 km/h 16.1 km/h 71 % 0.0 mm 534 W/m2
10:40 9.9 °C 4.7 °C 1032.4 hPa ENE 6.4 km/h 19.3 km/h 70 % 0.0 mm 548 W/m2
10:50 10.2 °C 5.4 °C 1032.7 hPa East 8.0 km/h 20.9 km/h 72 % 0.0 mm 570 W/m2
10:55 10.2 °C 4.6 °C 1032.7 hPa East 4.8 km/h 16.1 km/h 68 % 0.0 mm 584 W/m2
11:00 10.4 °C 4.6 °C 1032.7 hPa ENE 8.0 km/h 16.1 km/h 67 % 0.0 mm 596 W/m2
11:05 10.8 °C 5.4 °C 1032.7 hPa NE 8.0 km/h 19.3 km/h 69 % 0.0 mm 610 W/m2
11:10 10.8 °C 5.1 °C 1032.7 hPa NE 8.0 km/h 19.3 km/h 68 % 0.0 mm 626 W/m2
11:20 11.3 °C 5.2 °C 1032.7 hPa NE 12.9 km/h 17.7 km/h 66 % 0.0 mm 645 W/m2
11:25 11.4 °C 5.3 °C 1032.7 hPa NE 9.7 km/h 17.7 km/h 66 % 0.0 mm 652 W/m2
11:30 11.6 °C 5.0 °C 1032.7 hPa ENE 11.3 km/h 17.7 km/h 64 % 0.0 mm 666 W/m2
11:35 11.7 °C 5.8 °C 1032.7 hPa NNE 9.7 km/h 19.3 km/h 67 % 0.0 mm 677 W/m2
11:40 12.0 °C 5.8 °C 1032.7 hPa NE 4.8 km/h 19.3 km/h 66 % 0.0 mm 696 W/m2
11:45 12.3 °C 5.7 °C 1032.7 hPa East 14.5 km/h 19.3 km/h 64 % 0.0 mm 714 W/m2
11:50 12.1 °C 5.0 °C 1032.7 hPa NE 6.4 km/h 16.1 km/h 62 % 0.0 mm 712 W/m2
11:55 12.5 °C 5.4 °C 1032.7 hPa ESE 8.0 km/h 17.7 km/h 62 % 0.0 mm 740 W/m2
12:00 12.7 °C 5.3 °C 1032.7 hPa NE 6.4 km/h 17.7 km/h 61 % 0.0 mm 740 W/m2
12:05 12.6 °C 5.5 °C 1032.7 hPa ESE 12.9 km/h 17.7 km/h 62 % 0.0 mm 786 W/m2
12:10 12.7 °C 5.6 °C 1032.7 hPa East 11.3 km/h 17.7 km/h 62 % 0.0 mm 765 W/m2
12:15 13.3 °C 6.6 °C 1032.7 hPa NE 8.0 km/h 17.7 km/h 64 % 0.0 mm 800 W/m2
12:20 12.9 °C 4.1 °C 1032.7 hPa East 11.3 km/h 17.7 km/h 55 % 0.0 mm 796 W/m2
12:25 12.9 °C 4.4 °C 1032.7 hPa NE 17.7 km/h 20.9 km/h 56 % 0.0 mm 817 W/m2
12:30 12.9 °C 4.4 °C 1032.7 hPa NNE 6.4 km/h 22.5 km/h 56 % 0.0 mm 842 W/m2
12:35 12.7 °C 3.9 °C 1032.7 hPa ENE 17.7 km/h 22.5 km/h 55 % 0.0 mm 810 W/m2
12:40 13.1 °C 4.0 °C 1032.7 hPa ESE 17.7 km/h 20.9 km/h 54 % 0.0 mm 826 W/m2
12:45 13.3 °C 4.2 °C 1032.7 hPa ESE 17.7 km/h 22.5 km/h 54 % 0.0 mm 846 W/m2
12:50 13.3 °C 3.9 °C 1032.7 hPa ENE 11.3 km/h 22.5 km/h 53 % 0.0 mm 826 W/m2
12:55 13.3 °C 4.2 °C 1032.7 hPa NNE 4.8 km/h 20.9 km/h 54 % 0.0 mm 840 W/m2
13:00 13.7 °C 4.3 °C 1032.7 hPa East 9.7 km/h 20.9 km/h 53 % 0.0 mm 875 W/m2
13:05 13.8 °C 4.1 °C 1032.7 hPa East 9.7 km/h 16.1 km/h 52 % 0.0 mm 893 W/m2
13:15 13.9 °C 3.3 °C 1032.4 hPa East 12.9 km/h 25.7 km/h 49 % 0.0 mm 846 W/m2
13:20 14.2 °C 3.9 °C 1032.4 hPa ESE 19.3 km/h 27.4 km/h 50 % 0.0 mm 854 W/m2
13:25 14.1 °C 4.9 °C 1032.4 hPa ENE 14.5 km/h 27.4 km/h 54 % 0.0 mm 889 W/m2
13:30 14.3 °C 3.7 °C 1032.4 hPa East 12.9 km/h 22.5 km/h 49 % 0.0 mm 914 W/m2
13:35 13.9 °C 3.0 °C 1032.4 hPa ENE 12.9 km/h 24.1 km/h 48 % 0.0 mm 865 W/m2
13:40 14.1 °C 3.5 °C 1032.4 hPa ENE 17.7 km/h 24.1 km/h 49 % 0.0 mm 844 W/m2
13:45 14.6 °C 4.2 °C 1032.4 hPa ENE 16.1 km/h 25.7 km/h 50 % 0.0 mm 872 W/m2
13:50 14.0 °C 3.4 °C 1032.4 hPa ENE 3.2 km/h 25.7 km/h 49 % 0.0 mm 404 W/m2
13:55 14.2 °C 3.9 °C 1032.1 hPa ESE 14.5 km/h 20.9 km/h 50 % 0.0 mm 942 W/m2
14:00 14.9 °C 4.3 °C 1032.1 hPa SE 11.3 km/h 30.6 km/h 49 % 0.0 mm 930 W/m2
14:05 14.9 °C 3.1 °C 1032.1 hPa ESE 14.5 km/h 30.6 km/h 45 % 0.0 mm 886 W/m2
14:10 15.1 °C 2.9 °C 1032.1 hPa ESE 14.5 km/h 25.7 km/h 44 % 0.0 mm 942 W/m2
14:15 14.9 °C 3.7 °C 1032.1 hPa NE 3.2 km/h 25.7 km/h 47 % 0.0 mm 932 W/m2
14:20 15.4 °C 4.2 °C 1032.1 hPa East 12.9 km/h 22.5 km/h 47 % 0.0 mm 856 W/m2
14:25 15.2 °C 3.6 °C 1032.1 hPa NNE 12.9 km/h 25.7 km/h 46 % 0.0 mm 861 W/m2
14:30 15.0 °C 4.1 °C 1032.1 hPa ESE 6.4 km/h 25.7 km/h 48 % 0.0 mm 844 W/m2
14:35 15.1 °C 4.4 °C 1032.1 hPa NNE 3.2 km/h 24.1 km/h 49 % 0.0 mm 837 W/m2
14:40 15.0 °C 4.4 °C 1031.7 hPa ESE 17.7 km/h 24.1 km/h 49 % 0.0 mm 896 W/m2
14:45 15.1 °C 3.3 °C 1031.7 hPa ESE 22.5 km/h 29.0 km/h 45 % 0.0 mm 842 W/m2
14:50 15.1 °C 3.2 °C 1031.7 hPa East 9.7 km/h 29.0 km/h 45 % 0.0 mm 867 W/m2
14:55 15.2 °C 3.3 °C 1031.7 hPa East 16.1 km/h 27.4 km/h 45 % 0.0 mm 884 W/m2
15:00 14.9 °C 4.5 °C 1031.7 hPa ENE 12.9 km/h 29.0 km/h 50 % 0.0 mm 814 W/m2
15:05 14.6 °C 4.0 °C 1031.7 hPa East 14.5 km/h 29.0 km/h 49 % 0.0 mm 888 W/m2
15:10 14.8 °C 3.0 °C 1031.7 hPa NE 12.9 km/h 29.0 km/h 45 % 0.0 mm 153 W/m2
15:15 14.4 °C 2.6 °C 1031.7 hPa NNE 9.7 km/h 25.7 km/h 45 % 0.0 mm 837 W/m2
15:20 15.1 °C 3.6 °C 1031.7 hPa ENE 11.3 km/h 25.7 km/h 46 % 0.0 mm 824 W/m2
15:25 15.5 °C 3.3 °C 1031.7 hPa East 3.2 km/h 24.1 km/h 44 % 0.0 mm 842 W/m2
15:30 15.3 °C 3.8 °C 1031.7 hPa East 14.5 km/h 24.1 km/h 46 % 0.0 mm 819 W/m2
15:35 15.3 °C 2.8 °C 1031.7 hPa ENE 4.8 km/h 24.1 km/h 43 % 0.0 mm 823 W/m2
15:40 15.9 °C 4.3 °C 1031.7 hPa North 8.0 km/h 24.1 km/h 46 % 0.0 mm 765 W/m2
15:45 16.1 °C 3.8 °C 1031.4 hPa East 9.7 km/h 24.1 km/h 44 % 0.0 mm 837 W/m2
15:50 15.9 °C 3.3 °C 1031.4 hPa NE 19.3 km/h 24.1 km/h 43 % 0.0 mm 174 W/m2
15:55 15.1 °C 2.2 °C 1031.4 hPa North 8.0 km/h 25.7 km/h 42 % 0.0 mm 795 W/m2
16:00 15.3 °C 3.5 °C 1031.4 hPa NE 14.5 km/h 25.7 km/h 45 % 0.0 mm 181 W/m2
16:05 15.4 °C 3.2 °C 1031.4 hPa North 17.7 km/h 20.9 km/h 44 % 0.0 mm 838 W/m2
16:10 15.4 °C 3.6 °C 1031.4 hPa East 4.8 km/h 20.9 km/h 45 % 0.0 mm 772 W/m2
16:15 15.1 °C 4.1 °C 1031.0 hPa NE 11.3 km/h 27.4 km/h 48 % 0.0 mm 724 W/m2
16:20 15.5 °C 3.3 °C 1031.0 hPa NE 20.9 km/h 27.4 km/h 44 % 0.0 mm 726 W/m2
16:25 15.7 °C 2.8 °C 1031.0 hPa ESE 12.9 km/h 33.8 km/h 42 % 0.0 mm 689 W/m2
16:30 15.8 °C 2.9 °C 1031.0 hPa ENE 14.5 km/h 33.8 km/h 42 % 0.0 mm 680 W/m2
16:35 15.8 °C 2.2 °C 1031.0 hPa ENE 20.9 km/h 27.4 km/h 40 % 0.0 mm 696 W/m2
16:40 15.1 °C 2.6 °C 1031.0 hPa East 11.3 km/h 27.4 km/h 43 % 0.0 mm 668 W/m2
16:45 15.2 °C 1.7 °C 1031.0 hPa East 12.9 km/h 27.4 km/h 40 % 0.0 mm 649 W/m2
16:50 15.7 °C 1.7 °C 1031.0 hPa NE 6.4 km/h 25.7 km/h 39 % 0.0 mm 642 W/m2
16:55 15.6 °C 1.7 °C 1031.0 hPa NE 19.3 km/h 35.4 km/h 39 % 0.0 mm 633 W/m2
17:00 15.4 °C 1.5 °C 1031.0 hPa East 12.9 km/h 35.4 km/h 39 % 0.0 mm 603 W/m2
17:10 15.8 °C 3.2 °C 1030.7 hPa NNE 16.1 km/h 25.7 km/h 43 % 0.0 mm 573 W/m2
17:15 15.7 °C 1.4 °C 1030.7 hPa ENE 16.1 km/h 27.4 km/h 38 % 0.0 mm 577 W/m2
17:20 15.6 °C 2.0 °C 1030.7 hPa ENE 12.9 km/h 27.4 km/h 40 % 0.0 mm 563 W/m2
17:25 15.8 °C 2.6 °C 1030.7 hPa East 16.1 km/h 25.7 km/h 41 % 0.0 mm 547 W/m2
17:30 15.5 °C 1.9 °C 1030.7 hPa ENE 12.9 km/h 27.4 km/h 40 % 0.0 mm 520 W/m2
17:35 15.2 °C 1.6 °C 1030.7 hPa East 17.7 km/h 27.4 km/h 40 % 0.0 mm 519 W/m2
17:40 15.3 °C 1.7 °C 1030.7 hPa ENE 17.7 km/h 24.1 km/h 40 % 0.0 mm 510 W/m2
17:45 15.2 °C 2.0 °C 1030.7 hPa North 9.7 km/h 25.7 km/h 41 % 0.0 mm 480 W/m2
17:50 15.3 °C 2.1 °C 1030.7 hPa North 11.3 km/h 25.7 km/h 41 % 0.0 mm 471 W/m2
17:55 15.2 °C 1.3 °C 1030.7 hPa ENE 14.5 km/h 25.7 km/h 39 % 0.0 mm 478 W/m2
18:00 15.2 °C 2.4 °C 1030.7 hPa NE 12.9 km/h 24.1 km/h 42 % 0.0 mm 436 W/m2
18:05 15.3 °C 2.1 °C 1030.4 hPa East 16.1 km/h 24.1 km/h 41 % 0.0 mm 429 W/m2
18:10 15.0 °C 0.8 °C 1030.4 hPa ENE 14.5 km/h 24.1 km/h 38 % 0.0 mm 410 W/m2
18:15 15.2 °C 1.3 °C 1030.4 hPa East 6.4 km/h 22.5 km/h 39 % 0.0 mm 408 W/m2
18:20 14.9 °C 0.7 °C 1030.4 hPa East 20.9 km/h 29.0 km/h 38 % 0.0 mm 388 W/m2
18:25 15.0 °C 1.8 °C 1030.4 hPa ENE 20.9 km/h 29.0 km/h 41 % 0.0 mm 373 W/m2
18:30 14.9 °C 1.4 °C 1030.4 hPa ESE 14.5 km/h 24.1 km/h 40 % 0.0 mm 353 W/m2
18:35 14.8 °C 0.6 °C 1030.4 hPa East 8.0 km/h 22.5 km/h 38 % 0.0 mm 345 W/m2
18:40 14.7 °C 0.2 °C 1030.4 hPa NE 11.3 km/h 29.0 km/h 37 % 0.0 mm 329 W/m2
18:45 14.7 °C 1.2 °C 1030.4 hPa East 16.1 km/h 29.0 km/h 40 % 0.0 mm 316 W/m2
18:50 14.6 °C 0.4 °C 1030.7 hPa East 16.1 km/h 25.7 km/h 38 % 0.0 mm 299 W/m2
18:55 14.4 °C -0.1 °C 1030.4 hPa ENE 6.4 km/h 32.2 km/h 37 % 0.0 mm 283 W/m2
19:00 14.3 °C 0.5 °C 1030.4 hPa ENE 8.0 km/h 32.2 km/h 39 % 0.0 mm 269 W/m2
19:05 14.3 °C 0.8 °C 1030.4 hPa ENE 22.5 km/h 25.7 km/h 40 % 0.0 mm 244 W/m2
19:10 14.1 °C 1.0 °C 1030.4 hPa East 17.7 km/h 25.7 km/h 41 % 0.0 mm 234 W/m2
19:15 13.9 °C 0.5 °C 1030.4 hPa ENE 6.4 km/h 25.7 km/h 40 % 0.0 mm 149 W/m2
19:20 14.0 °C 0.9 °C 1030.4 hPa NE 3.2 km/h 20.9 km/h 41 % 0.0 mm 63 W/m2
19:25 13.8 °C 0.4 °C 1030.4 hPa ENE 8.0 km/h 24.1 km/h 40 % 0.0 mm 54 W/m2
19:30 13.6 °C 0.2 °C 1030.4 hPa East 9.7 km/h 24.1 km/h 40 % 0.0 mm 65 W/m2
19:35 13.5 °C 0.1 °C 1030.4 hPa NE 9.7 km/h 24.1 km/h 40 % 0.0 mm 77 W/m2
19:40 13.4 °C 0.4 °C 1030.4 hPa NE 3.2 km/h 24.1 km/h 41 % 0.0 mm 51 W/m2
19:45 13.3 °C -0.1 °C 1030.4 hPa North 11.3 km/h 24.1 km/h 40 % 0.0 mm 49 W/m2
19:50 13.3 °C 0.3 °C 1030.4 hPa ESE 12.9 km/h 24.1 km/h 41 % 0.0 mm 69 W/m2
19:55 13.2 °C 0.9 °C 1030.4 hPa East 1.6 km/h 24.1 km/h 43 % 0.0 mm 90 W/m2
20:00 13.0 °C 0.7 °C 1030.4 hPa ENE 11.3 km/h 19.3 km/h 43 % 0.0 mm 77 W/m2
20:05 12.8 °C 0.2 °C 1030.4 hPa NE 8.0 km/h 20.9 km/h 42 % 0.0 mm 70 W/m2
20:10 12.7 °C 0.4 °C 1030.4 hPa ENE 6.4 km/h 20.9 km/h 43 % 0.0 mm 53 W/m2
20:15 12.6 °C 0.3 °C 1030.7 hPa East 12.9 km/h 19.3 km/h 43 % 0.0 mm 30 W/m2
20:20 12.4 °C 0.5 °C 1030.7 hPa NE 6.4 km/h 19.3 km/h 44 % 0.0 mm 26 W/m2
20:25 12.3 °C 0.4 °C 1030.7 hPa East 11.3 km/h 17.7 km/h 44 % 0.0 mm 23 W/m2
20:30 12.3 °C 0.0 °C 1030.7 hPa ENE 12.9 km/h 22.5 km/h 43 % 0.0 mm 21 W/m2
20:35 12.1 °C 0.2 °C 1030.7 hPa ESE 9.7 km/h 22.5 km/h 44 % 0.0 mm 19 W/m2
20:40 11.9 °C 0.4 °C 1030.7 hPa East 3.2 km/h 14.5 km/h 45 % 0.0 mm 16 W/m2
20:45 11.7 °C 0.1 °C 1030.7 hPa ENE 6.4 km/h 16.1 km/h 45 % 0.0 mm 12 W/m2
20:50 11.3 °C 0.1 °C 1030.7 hPa ENE 11.3 km/h 16.1 km/h 46 % 0.0 mm 11 W/m2
20:55 11.4 °C 0.5 °C 1030.7 hPa ENE 1.6 km/h 16.1 km/h 47 % 0.0 mm 7 W/m2
21:00 11.3 °C 0.4 °C 1031.0 hPa ENE 4.8 km/h 12.9 km/h 47 % 0.0 mm 5 W/m2
21:05 10.8 °C 0.8 °C 1031.0 hPa Calm   12.9 km/h 50 % 0.0 mm 0 W/m2
21:10 10.6 °C 0.8 °C 1031.0 hPa ENE 4.8 km/h 11.3 km/h 51 % 0.0 mm 0 W/m2
21:15 10.4 °C 0.7 °C 1031.0 hPa NE 3.2 km/h 11.3 km/h 51 % 0.0 mm 0 W/m2
21:20 10.3 °C 0.6 °C 1031.0 hPa Calm   11.3 km/h 51 % 0.0 mm 0 W/m2
21:25 10.1 °C 0.9 °C 1031.4 hPa NE 3.2 km/h 14.5 km/h 53 % 0.0 mm 0 W/m2
21:30 9.9 °C 0.7 °C 1031.4 hPa East 4.8 km/h 14.5 km/h 53 % 0.0 mm 0 W/m2
21:35 9.8 °C 0.6 °C 1031.4 hPa East 3.2 km/h 11.3 km/h 53 % 0.0 mm 0 W/m2
21:40 9.7 °C 0.6 °C 1031.4 hPa NE 6.4 km/h 11.3 km/h 53 % 0.0 mm 0 W/m2
21:45 9.6 °C 0.7 °C 1031.4 hPa ENE 4.8 km/h 11.3 km/h 54 % 0.0 mm 0 W/m2
21:50 9.3 °C 0.7 °C 1031.4 hPa Calm   11.3 km/h 55 % 0.0 mm 0 W/m2
21:55 8.9 °C 0.9 °C 1031.7 hPa NE 4.8 km/h 8.0 km/h 57 % 0.0 mm 0 W/m2
22:00 8.9 °C 0.8 °C 1031.7 hPa ENE 8.0 km/h 11.3 km/h 57 % 0.0 mm 0 W/m2
22:05 9.1 °C 0.8 °C 1031.7 hPa Calm   12.9 km/h 56 % 0.0 mm 0 W/m2
22:10 9.2 °C 0.6 °C 1031.7 hPa East 3.2 km/h 12.9 km/h 55 % 0.0 mm 0 W/m2
22:15 9.3 °C 0.7 °C 1031.7 hPa Calm   12.9 km/h 55 % 0.0 mm 0 W/m2
22:20 9.1 °C 0.5 °C 1032.1 hPa East 3.2 km/h 11.3 km/h 55 % 0.0 mm 0 W/m2
22:25 9.0 °C 0.7 °C 1032.1 hPa ENE 3.2 km/h 9.7 km/h 56 % 0.0 mm 0 W/m2
22:30 8.8 °C 0.5 °C 1032.1 hPa East 4.8 km/h 12.9 km/h 56 % 0.0 mm 0 W/m2
22:35 8.5 °C 0.9 °C 1032.1 hPa Calm   12.9 km/h 59 % 0.0 mm 0 W/m2
22:40 8.4 °C 0.6 °C 1032.1 hPa ENE 4.8 km/h 11.3 km/h 58 % 0.0 mm 0 W/m2
22:45 8.6 °C 0.8 °C 1032.4 hPa East 1.6 km/h 11.3 km/h 58 % 0.0 mm 0 W/m2
22:50 8.5 °C 0.7 °C 1032.4 hPa East 3.2 km/h 8.0 km/h 58 % 0.0 mm 0 W/m2
22:55 8.1 °C 0.8 °C 1032.4 hPa ENE 3.2 km/h 8.0 km/h 60 % 0.0 mm 0 W/m2
23:00 7.6 °C 0.8 °C 1032.4 hPa Calm   4.8 km/h 62 % 0.0 mm 0 W/m2
23:05 7.4 °C 0.9 °C 1032.4 hPa ENE 3.2 km/h 4.8 km/h 63 % 0.0 mm 0 W/m2
23:10 7.4 °C 0.9 °C 1032.4 hPa ENE 1.6 km/h 8.0 km/h 63 % 0.0 mm 0 W/m2
23:15 7.3 °C 0.9 °C 1032.7 hPa East 1.6 km/h 8.0 km/h 64 % 0.0 mm 0 W/m2
23:20 7.2 °C 0.8 °C 1032.7 hPa ENE 6.4 km/h 12.9 km/h 64 % 0.0 mm 0 W/m2
23:25 7.2 °C 0.8 °C 1032.7 hPa NE 4.8 km/h 12.9 km/h 64 % 0.0 mm 0 W/m2
23:30 7.0 °C 0.9 °C 1032.7 hPa East 8.0 km/h 11.3 km/h 65 % 0.0 mm 0 W/m2
23:35 7.1 °C 0.9 °C 1032.7 hPa ENE 8.0 km/h 16.1 km/h 65 % 0.0 mm 0 W/m2
23:40 6.9 °C 0.6 °C 1032.7 hPa NE 3.2 km/h 16.1 km/h 64 % 0.0 mm 0 W/m2
23:45 7.1 °C 0.8 °C 1032.7 hPa East 9.7 km/h 17.7 km/h 64 % 0.0 mm 0 W/m2
23:50 7.2 °C 0.4 °C 1032.7 hPa NE 1.6 km/h 17.7 km/h 62 % 0.0 mm 0 W/m2
23:55 7.3 °C 0.3 °C 1032.7 hPa ENE 8.0 km/h 17.7 km/h 61 % 0.0 mm 0 W/m2
Avec l'autorisation de Weather Underground - 1.75 mb